Location: Newark
(49.8969°N, 3.3422°E)
Time: 13:20:29
(UTC+00:00)

A-11 Canister half - Pass Details

Date: 01 February 2020
Orbit: 1517 x 1683 km, 47.2° (Epoch: 28 February)

Event Time Altitude Azimuth Distance (km) Brightness Sun altitude
Rises 04:18:32 0° 288° (WNW) 4,678 - -29.4°
Reaches altitude 10° 04:22:04 10° 278° (W) 3,685 - -28.8°
Maximum altitude 04:29:33 29° 223° (SW) 2,505 - -27.6°
Exits shadow 04:30:49 28° 210° (SSW) 2,547 9.8 -27.4°
Drops below altitude 10° 04:37:04 10° 168° (SSE) 3,690 11.1 -26.4°
Sets 04:40:38 0° 158° (SSE) 4,686 11.8 -25.8°
